(5489) Oberkochen = 1951 EW2 = 1952 KC1 = 1952 MF = 1959 CD = 1966 VO = 1980 BS3 = 1985 DN1 = 1986 LH1 = 1993 BF2

Discovered at Yatsugatake on 1993-01-17 by Y. Kushida and O. Muramatsu.
(5489) Oberkochen = 1993 BF2

Named for the town in Germany in which the Zeiss Optical works are located. This minor planet was discovered on the night that two Zeiss engineers visited the observatory. [Ref: Minor Planet Circ. 22510]

Orbit

Orbit type: Main Belt

Note: WebGL enabled browser required.

epoch2024-03-31.0
epoch JD2460400.5
perihelion date2021-10-03.23137
perihelion JD2459490.73138
argument of perihelion (°)265.28728
ascending node (°)102.12733
inclination (°)13.98903
eccentricity0.1818077
perihelion distance (AU)2.1507354
Tisserand w.r.t. Jupiter3.3
ΔV w.r.t. Earth (km/sec)10.1
semimajor axis (AU)2.6286429
mean anomaly (°)210.39608
mean daily motion (°/day)0.23126330
aphelion distance (AU)3.107
period (years)4.26
P-vector [x]0.96274019
P-vector [y]0.20853454
P-vector [z]-0.17217628
Q-vector [x]-0.13143086
Q-vector [y]0.91724091
Q-vector [z]0.37602532
absolute magnitude11.57
phase slope0.15
uncertainty0
referenceE2024-GJ9
observations used3836
oppositions30
arc length (days)26692
first opposition used1951
last opposition used2024
residual rms (arc-secs)0.53
perturbers coarse indicatorM-v
perturbers precise indicator003Ek
first observation date used1951-03-15.0
last observation date used2024-04-12.0
computer nameMPCLINUX
JD of orbit computation2456819.567626
perihelion JD uncertainty (days)3.4071E-05
argument of perihelion uncertainty (°)1.2923E-05
ascending node uncertainty (°)1.0402E-05
inclination uncertainty (°)2.7619E-06
eccentricity uncertainty 2.3236E-08
perihelion distance uncertainty (AU)6.3363E-08
Minimum Orbit Intersection Distances (in AU)
for orbit epoch: 2460400.5, reference: E2024-GJ9
Mercury1.79336
Venus1.44353
Earth1.20242
Mars0.83958
Jupiter2.48739
Saturn6.33458
Uranus15.4468
Neptune27.4566

Observations

3903 total observations over interval: 1951 03 15.3833 – 2024 03 21.581227
These data are available for download (format description).

Date (UT) J2000 RA J2000 Dec Magn Location Ref
1951 03 15.3833 11 55 39.5 +21 24 24   711 – McDonald Observatory, Fort Davis AP 03
1952 05 25.3132 16 44 33.1 -09 42 16 15.9   711 – McDonald Observatory, Fort Davis AP 03
1952 05 25.3215 16 44 33.1 -09 42 03 16.5   711 – McDonald Observatory, Fort Davis AP 03
1952 06 17.22726 16 22 38.96 -10 31 43.5   760 – Goethe Link Observatory, Brooklyn MPC 2697
1952 06 17.27170 16 22 36.62 -10 31 53.2 16.4   760 – Goethe Link Observatory, Brooklyn MPC 2697
1952 06 17.27170 16 22.3 -10 32 16.4   760 – Goethe Link Observatory, Brooklyn MPC 851
1959 02 04.88814 08 55 07.49 +27 59 32.5   024 – Heidelberg-Konigstuhl HD 21
1959 02 04.88814 08 55.1 +28 02 15.0   024 – Heidelberg-Konigstuhl MPC 1885
1966 11 13.07242 05 15 37.54 +09 18 50.2 14.5   095 – Crimea-Nauchnyi MPC 2835
1966 11 23.02905 05 06 57.93 +09 43 14.5   095 – Crimea-Nauchnyi MPC 2835
1980 01 22.84219 06 24 56.76 +24 19 32.2 16.5   095 – Crimea-Nauchnyi MPC 8042
1985 02 25.37500 11 40 43.96 +21 42 32.0 16.5   688 – Lowell Observatory, Anderson Mesa Station MPC 9540
1985 02 25.43750 11 40 41.03 +21 43 01.5   688 – Lowell Observatory, Anderson Mesa Station MPC 9540
1985 03 22.28351 11 19 35.62 +24 19 58.4 17.0   688 – Lowell Observatory, Anderson Mesa Station MPC 9669
1985 03 22.35072 11 19 32.34 +24 20 13.6   688 – Lowell Observatory, Anderson Mesa Station MPC 9669
1986 06 08.23322 15 54 37.67 -06 51 52.3 17.0   688 – Lowell Observatory, Anderson Mesa Station MPC 11014
1986 06 08.31606 15 54 33.20 -06 52 03.8   688 – Lowell Observatory, Anderson Mesa Station MPC 11014
1992 12 29.76528 08 46 50.44 +23 39 41.2 16.5   894 – Kiyosato MPC 21754
1993 01 04.78920 08 42 20.85 +24 30 52.5 16.5   894 – Kiyosato MPC 21754
1993 01 04.80243 08 42 20.32 +24 30 58.2   894 – Kiyosato MPC 21754
1993 01 17.62222 08 30 33.42 +26 19 49.3 16.0   896 – Yatsugatake South Base Observatory MPC 21755
1993 01 17.65208 08 30 31.62 +26 20 01.7   896 – Yatsugatake South Base Observatory MPC 21755
1993 01 18.47361 08 29 42.55 +26 26 43.0 15.5   400 – Kitami MPC 21683
1993 01 18.48819 08 29 41.69 +26 26 50.8   400 – Kitami MPC 21683
1993 01 19.69931 08 28 27.99 +26 36 34.2   896 – Yatsugatake South Base Observatory MPC 21755
1993 01 20.70556 08 27 26.80 +26 44 34.2 16.3   894 – Kiyosato MPC 21754
1993 01 20.71917 08 27 25.90 +26 44 39.3   894 – Kiyosato MPC 21754
1993 01 22.58333 08 25 32.25 +26 59 09.8 16.0   402 – Dynic Astronomical Observatory MPC 21683
1993 01 22.59931 08 25 31.31 +26 59 17.5   402 – Dynic Astronomical Observatory MPC 21683
1993 01 22.67569 08 25 26.39 +26 59 56.6   896 – Yatsugatake South Base Observatory MPC 21755
1993 01 22.70295 08 25 24.69 +27 00 03.5   896 – Yatsugatake South Base Observatory MPC 21755
1993 01 23.25396 08 24 51.18 +27 04 18.0   691 – Steward Observatory, Kitt Peak-Spacewatch MPC 21714
1993 01 23.28365 08 24 49.31 +27 04 30.6 14.9 V 691 – Steward Observatory, Kitt Peak-Spacewatch MPC 21714
1993 01 23.31341 08 24 47.44 +27 04 44.1   691 – Steward Observatory, Kitt Peak-Spacewatch MPC 21714
1993 01 29.61563 08 18 24.60 +27 49 52.6 16.5   894 – Kiyosato MPC 21754
1993 01 29.62882 08 18 23.71 +27 49 57.8   894 – Kiyosato MPC 21754
1993 01 29.72743 08 18 17.63 +27 50 35.5   896 – Yatsugatake South Base Observatory MPC 21755
1993 01 29.75243 08 18 16.18 +27 50 45.1   896 – Yatsugatake South Base Observatory MPC 21755
1993 02 10.46979 08 07 28.4 +28 57 59   896 – Yatsugatake South Base Observatory MPC 21755
1993 02 10.49583 08 07 27.00 +28 58 07.1   896 – Yatsugatake South Base Observatory MPC 21755
1993 02 14.55694 08 04 16.17 +29 15 55.5   896 – Yatsugatake South Base Observatory MPC 21755
1993 02 14.58559 08 04 14.89 +29 16 03.3   896 – Yatsugatake South Base Observatory MPC 21755
1996 11 11.45654 06 54 00.97 +16 24 07.9   689 – U.S. Naval Observatory, Flagstaff MPC 28432
1996 11 12.45373 06 53 54.42 +16 27 20.9   689 – U.S. Naval Observatory, Flagstaff MPC 28432
1996 12 16.00995 06 32 55.60 +19 15 14.5 14.7 V 610 – Pianoro MPC 28731
1996 12 16.02193 06 32 54.83 +19 15 18.8   610 – Pianoro MPC 28731
1996 12 16.02859 06 32 54.41 +19 15 21.3   610 – Pianoro MPC 28731
1997 01 17.16858 06 00 47.41 +22 36 56.1   710 – MPO Observatory, Florissant MPC 29058
1997 01 18.16337 06 00 03.05 +22 42 30.9   710 – MPO Observatory, Florissant MPC 29058
1998 04 02.14394 12 26 56.47 +18 57 36.6 17.5   704 – Lincoln Laboratory ETS, New Mexico MPS 1159
1998 04 02.16434 12 26 55.44 +18 57 42.8   704 – Lincoln Laboratory ETS, New Mexico MPS 1159
1998 04 02.18463 12 26 54.43 +18 57 46.6   704 – Lincoln Laboratory ETS, New Mexico MPS 1159
1998 04 02.20482 12 26 53.36 +18 57 52.3   704 – Lincoln Laboratory ETS, New Mexico MPS 1159
1998 04 02.22562 12 26 52.30 +18 57 56.9   704 – Lincoln Laboratory ETS, New Mexico MPS 1159
1998 04 03.15077 12 26 05.60 +19 01 46.6   704 – Lincoln Laboratory ETS, New Mexico MPS 1159
1998 04 03.17108 12 26 04.53 +19 01 50.9   704 – Lincoln Laboratory ETS, New Mexico MPS 1159
1998 04 03.19154 12 26 03.49 +19 01 55.5   704 – Lincoln Laboratory ETS, New Mexico MPS 1159
1998 04 03.21193 12 26 02.50 +19 02 00.2   704 – Lincoln Laboratory ETS, New Mexico MPS 1159
1998 04 03.23226 12 26 01.41 +19 02 05.3   704 – Lincoln Laboratory ETS, New Mexico MPS 1159
1999 03 24.42634 17 45 25.04 -13 55 35.6 18.5   704 – Lincoln Laboratory ETS, New Mexico MPS 4682
1999 03 24.43658 17 45 25.59 -13 55 35.7 18.3   704 – Lincoln Laboratory ETS, New Mexico MPS 4682
1999 03 24.44683 17 45 25.97 -13 55 35.8 18.3   704 – Lincoln Laboratory ETS, New Mexico MPS 4682
1999 03 24.45710 17 45 26.27 -13 55 35.8 18.3   704 – Lincoln Laboratory ETS, New Mexico MPS 4682
1999 03 24.46736 17 45 26.89 -13 55 36.0 17.8   704 – Lincoln Laboratory ETS, New Mexico MPS 4682
1999 04 29.32884 17 57 16.235 -13 50 46.56 14.59 J I02 – Cerro Tololo Observatory, La Serena--2MASS MPS 80502
1999 05 19.37398 17 49 54.78 -14 11 52.7 17.8   704 – Lincoln Laboratory ETS, New Mexico MPS 5406
1999 05 19.38787 17 49 54.05 -14 11 55.6 17.3   704 – Lincoln Laboratory ETS, New Mexico MPS 5406
1999 05 19.40178 17 49 53.57 -14 11 57.5 17.3   704 – Lincoln Laboratory ETS, New Mexico MPS 5406
1999 05 19.41574 17 49 53.06 -14 11 58.4 17.3   704 – Lincoln Laboratory ETS, New Mexico MPS 5406
1999 05 19.42964 17 49 52.45 -14 12 00.2 17.3   704 – Lincoln Laboratory ETS, New Mexico MPS 5406
1999 06 09.35711 17 32 28.78 -15 06 47.4 15.7   704 – Lincoln Laboratory ETS, New Mexico MPS 5406
1999 06 09.36658 17 32 28.19 -15 06 49.1   704 – Lincoln Laboratory ETS, New Mexico MPS 5406
1999 06 09.37594 17 32 27.65 -15 06 51.3   704 – Lincoln Laboratory ETS, New Mexico MPS 5406
1999 06 09.38532 17 32 27.06 -15 06 52.5 17.0   704 – Lincoln Laboratory ETS, New Mexico MPS 5406
1999 06 09.39468 17 32 26.49 -15 06 55.4   704 – Lincoln Laboratory ETS, New Mexico MPS 5406
1999 06 11.30010 17 30 33.38 -15 13 36.3 15.7   704 – Lincoln Laboratory ETS, New Mexico MPS 5406
1999 06 11.31277 17 30 32.63 -15 13 39.7 15.7   704 – Lincoln Laboratory ETS, New Mexico MPS 5406
1999 06 11.32527 17 30 31.85 -15 13 42.0 15.9   704 – Lincoln Laboratory ETS, New Mexico MPS 5406
1999 06 11.33772 17 30 31.09 -15 13 44.9 15.5   704 – Lincoln Laboratory ETS, New Mexico MPS 5406
1999 06 11.35019 17 30 30.36 -15 13 49.5 16.7   704 – Lincoln Laboratory ETS, New Mexico MPS 5406
1999 06 15.28991 17 26 32.42 -15 28 26.2 15.8   704 – Lincoln Laboratory ETS, New Mexico MPS 5406
1999 06 15.30207 17 26 31.64 -15 28 28.4   704 – Lincoln Laboratory ETS, New Mexico MPS 5406
1999 06 15.31423 17 26 30.92 -15 28 32.0   704 – Lincoln Laboratory ETS, New Mexico MPS 5406
1999 06 15.32639 17 26 30.11 -15 28 34.7   704 – Lincoln Laboratory ETS, New Mexico MPS 5406
1999 06 15.33859 17 26 29.36 -15 28 37.5   704 – Lincoln Laboratory ETS, New Mexico MPS 5406
1999 07 14.17173 17 00 54.02 -17 41 59.4 16.2   704 – Lincoln Laboratory ETS, New Mexico MPS 5775
